Elkins, WV

7:01 AM EDT on April 24, 2018 (GMT -0400)
Elkins-Randolph County

Weather History for KEKN - December, 2012

Change the Weather History Date:

Wednesday, December 19, 2012

  Actual Average Record
Temperature  
Mean Temperature 36 °F 32 °F  
Max Temperature 45 °F 41 °F 67 °F (1924)
Min Temperature 27 °F 22 °F -6 °F (1989)
Degree Days  
Heating Degree Days 29 34  
Month to date heating degree days 424 592  
Since 1 July heating degree days 1839 1876  
Cooling Degree Days 0 0  
Month to date cooling degree days 0 0  
Year to date cooling degree days 675 475  
Moisture  
Dew Point 31 °F    
Average Humidity 73    
Maximum Humidity 92    
Minimum Humidity 53    
Precipitation  
Precipitation 0.00 in 0.10 in 0.77 in (1914)
Month to date precipitation 2.74 2.08  
Year to date precipitation 44.85 44.75  
Snow  
Snow 0.00 in 0.60 in 19.90 in (2009)
Month to date snowfall 0.0 9.7  
Since 1 September snowfall 18.4 15.3  
Snow Depth 0.00 in    
Sea Level Pressure  
Sea Level Pressure 30.04 in    
Wind  
Wind Speed 6 mph (West)    
Max Wind Speed 24 mph    
Max Gust Speed 36 mph    
Visibility 9 miles    
Events      
T = Trace of Precipitation, MM = Missing Value Source: NWS Daily Summary

Daily Weather History Graph

Daily Weather History Graph

Search for Another Location

Airport or City:

Astronomy

Dec. 19, 2012 Rise Set
Actual Time 7:33 AM EST 5:00 PM EST
Civil Twilight 7:03 AM EST 5:30 PM EST
Nautical Twilight 6:30 AM EST 6:03 PM EST
Astronomical Twilight 5:57 AM EST 6:36 PM EST
Moon 11:45 AM EST (12/19) No Moon Set
Length of Visible Light 10h 26m
Length of Day
9h 26m
Waxing Crescent, 45% of the Moon is Illuminated
Dec 19
Waxing Crescent
Dec 20
First Quarter
Dec 28
Full
Jan 4
Last Quarter
Jan 11
New

Hourly Weather History & Observations

Time (EST) Temp. Windchill Dew Point Humidity Pressure Visibility Wind Dir Wind Speed Gust Speed Precip Events Conditions
12:51 AM 34.0 °F - 30.9 °F 89% 29.86 in 10.0 mi Calm Calm - N/A   Overcast
1:51 AM 41.0 °F 33.9 °F 27.0 °F 57% 29.84 in 10.0 mi SSW 12.7 mph 23.0 mph N/A   Overcast
2:51 AM 45.0 °F 38.2 °F 28.0 °F 52% 29.86 in 10.0 mi West 15.0 mph 29.9 mph N/A   Overcast
3:51 AM 44.1 °F 36.5 °F 30.0 °F 58% 29.87 in 10.0 mi West 17.3 mph 31.1 mph N/A   Overcast
4:51 AM 43.0 °F 35.4 °F 30.9 °F 62% 29.90 in 10.0 mi WSW 16.1 mph 23.0 mph N/A   Overcast
5:03 AM 42.8 °F 36.2 °F 30.2 °F 61% 29.86 in 10.0 mi West 12.7 mph 25.3 mph N/A   Overcast
5:51 AM 42.1 °F 36.6 °F 30.9 °F 65% 29.91 in 10.0 mi West 9.2 mph 20.7 mph N/A   Overcast
6:51 AM 42.1 °F 36.1 °F 32.0 °F 67% 29.95 in 10.0 mi West 10.4 mph 18.4 mph N/A   Overcast
7:51 AM 42.1 °F 36.6 °F 32.0 °F 67% 29.98 in 10.0 mi West 9.2 mph - N/A   Overcast
8:51 AM 42.1 °F - 32.0 °F 67% 30.02 in 10.0 mi Calm Calm - N/A   Overcast
9:51 AM 42.1 °F 38.4 °F 33.1 °F 70% 30.05 in 10.0 mi WSW 5.8 mph - N/A   Overcast
10:51 AM 42.1 °F 35.2 °F 32.0 °F 67% 30.06 in 10.0 mi WSW 12.7 mph 18.4 mph N/A   Scattered Clouds
11:51 AM 43.0 °F 37.2 °F 33.1 °F 68% 30.07 in 10.0 mi WSW 10.4 mph - N/A   Mostly Cloudy
12:51 PM 44.1 °F 40.8 °F 32.0 °F 63% 30.06 in 10.0 mi WSW 5.8 mph - N/A   Overcast
1:02 PM 42.8 °F 38.6 °F 32.0 °F 66% 30.02 in 10.0 mi West 6.9 mph 16.1 mph N/A   Overcast
1:29 PM 44.6 °F 42.2 °F 30.2 °F 57% 30.02 in 10.0 mi Variable 4.6 mph - N/A   Overcast
1:51 PM 44.1 °F 40.1 °F 32.0 °F 63% 30.06 in 10.0 mi West 6.9 mph - N/A   Overcast
2:47 PM 44.6 °F 43.1 °F 32.0 °F 61% 30.04 in 10.0 mi NW 3.5 mph - N/A   Overcast
2:51 PM 44.1 °F 38.6 °F 33.1 °F 65% 30.08 in 10.0 mi WNW 10.4 mph - N/A   Overcast
3:02 PM 44.6 °F 41.4 °F 33.8 °F 66% 30.05 in 10.0 mi NW 5.8 mph - N/A   Overcast
3:51 PM 43.0 °F 40.3 °F 33.1 °F 68% 30.10 in 10.0 mi NW 4.6 mph - N/A   Overcast
4:35 PM 42.8 °F 40.1 °F 32.0 °F 66% 30.08 in 10.0 mi NNW 4.6 mph - N/A   Mostly Cloudy
4:51 PM 41.0 °F - 32.0 °F 70% 30.12 in 10.0 mi Calm Calm - N/A   Overcast
5:51 PM 37.9 °F - 32.0 °F 79% 30.15 in 10.0 mi Calm Calm - N/A   Scattered Clouds
6:18 PM 35.6 °F - 30.2 °F 81% 30.10 in 10.0 mi Calm Calm - N/A   Mostly Cloudy
6:33 PM 33.8 °F - 30.2 °F 87% 30.11 in 10.0 mi Calm Calm - N/A   Scattered Clouds
6:51 PM 32.0 °F - 28.9 °F 88% 30.17 in 9.0 mi Calm Calm - N/A   Clear
7:51 PM 30.0 °F - 27.0 °F 88% 30.19 in 6.0 mi Calm Calm - N/A   Clear
8:51 PM 28.9 °F - 27.0 °F 92% 30.19 in 4.0 mi Calm Calm - N/A   Clear
9:51 PM 28.9 °F - 27.0 °F 92% 30.20 in 4.0 mi Calm Calm - N/A   Clear
10:51 PM 30.9 °F - 28.9 °F 92% 30.18 in 5.0 mi Calm Calm - N/A   Clear
11:51 PM 30.9 °F - 28.9 °F 92% 30.18 in 4.0 mi Calm Calm - N/A   Clear